Flag for U.S.A. Weather past 2 weeks in Brownsville, Texas, U.S.A.

Now
51 °F

Light rain. Fog.


Feels Like: 47 °F
Forecast: 56 / 72 °F
Wind: 10 mph from Northwest

Location: Brownsville / South Padre Island International Airport

Current Time: Mar 1, 2015 at 1:34:12 AM

Latest Report: Mar 1, 2015 at 1:02 AM


Visibility: 5 mi

Pressure: 30.15 "Hg

Humidity: 92%

Dew point: 49 °F

Location of BrownsvilleLocation

Historic Weather in Brownsville — Graph

°F

Brownsville temperature yesterday

Maximum temperature yesterday: 56 °F (at 12:53 AM)
Minimum temperature yesterday: 48 °F (at 7:53 AM)
Average temperature yesterday: 51 °F

Past Weeks' High & Low Weather Summary

 TemperatureHumidityPressure
High80 °F (Feb 16, 1:53 PM)100% (Feb 26, 1:53 AM)30.40 "Hg (Feb 26, 1:53 AM)
Low38 °F (Feb 24, 4:53 AM)37% (Feb 18, 1:53 PM)29.78 "Hg (Feb 16, 3:53 PM)
Average59 °F81%30.10 "Hg
* Reported Feb 13 11:53 PM — Feb 28 11:53 PM, Brownsville, Weather by CustomWeather, © 2015

Note: Actual official high and low records may vary slightly from our data, if they occured in-between our weather recording intervals... More about our weather records

Advertising

Brownsville weather history for previous 24 hours

 ConditionsComfort  
Time TempWeatherWind HumidityBarometerVisibility
11:53 PM
Sat, Feb 28
51 °FLow clouds.7 mph96%30.15 "Hg9 mi
10:53 PM51 °FLight rain. Low clouds.7 mph96%30.16 "Hg7 mi
9:53 PM51 °FLight rain. Fog.9 mph96%30.16 "Hg6 mi
8:53 PM51 °FLight rain. Fog.7 mph96%30.15 "Hg4 mi
7:53 PM50 °FLow clouds.8 mph96%30.14 "Hg9 mi
6:53 PM50 °FMostly cloudy.6 mph96%30.12 "Hg7 mi
5:53 PM50 °FLight rain. Fog.7 mph96%30.12 "Hg3 mi
4:53 PM50 °FFog.8 mph93%30.12 "Hg6 mi
3:53 PM50 °FLight rain. Fog.10 mph93%30.11 "Hg5 mi
2:53 PM51 °FFog.9 mph92%30.11 "Hg5 mi
1:53 PM50 °FLight rain. Fog.12 mph93%30.14 "Hg2 mi
12:53 PM52 °FLow clouds.12 mph83%30.16 "Hg7 mi
11:53 AM51 °FFog.10 mph89%30.18 "Hg4 mi
10:53 AM51 °FFog.9 mph89%30.20 "Hg5 mi
9:53 AM50 °FFog.10 mph89%30.20 "Hg5 mi
8:53 AM49 °FFog.12 mph93%30.19 "Hg3 mi
7:53 AM48 °FFog.9 mph96%30.19 "Hg2 mi
6:53 AM49 °FFog.10 mph97%30.16 "Hg2 mi
5:53 AM50 °FFog.9 mph96%30.15 "Hg1 mi
4:53 AM51 °FFog.9 mph96%30.14 "Hg2 mi
3:53 AM52 °FFog.9 mph97%30.13 "Hg2 mi
2:53 AM53 °FFog.9 mph96%30.14 "Hg3 mi
1:53 AM55 °FFog.8 mph93%30.16 "Hg4 mi
1:04 AM56 °FFog.9 mph90%30.17 "Hg5 mi
Weather by CustomWeather, © 2015

See weather overviewHow to use our weather pages